www.pogodaiklimat.ru

Погода и климат >> Архив погоды >> Великобритания >> Керкуолл


АРХИВ ПОГОДЫ в Керкуолле

Время (UTC), дата Ветер
(напр.,м/с)
 
Видим.   Явления Облачность Т
(С)
Тd
(С)
f
(%)
Тe
(С)
Тes
(С)
Комфортность P
(гПа)
Po
(гПа)
Тmin
(С)
Tmax
(С)
R
(мм)
R24
(мм)
S
(см)
01 10.07 ЮВ 4 600 м туман н/о +11.5 +11.1 97 +9 +9 тепло 1014.5 1011.4
02 10.07 ЮВ 4 500 м туман н/о +11.6 +11.2 97 +9 +9 тепло 1014.2 1011.0
03 10.07 Ю 4 500 м туман н/о +11.6 +11.2 97 +9 +9 по сезону 1014.0 1010.8
04 10.07 Ю 3 800 м туман н/о +11.8 +11.4 97 +10 +10 тепло 1013.8 1010.7
05 10.07 штиль 0 26 км в посл. час туман н/о +12.2 +11.9 98 +12 +12 тепло 1013.7 1010.6
06 10.07 штиль 0 65 км н/о +13.0 +12.7 98 +12 +12 по сезону 1013.7 1010.5 +11.5 3
07 10.07 штиль 0 60 км н/о +13.8 +13.4 97 +13 +13 тепло 1013.6 1010.5
08 10.07 штиль 0 45 км н/о +14.5 +14.1 97 +14 +14 тепло 1013.6 1010.5
09 10.07 штиль 0 55 км в посл. час дождь н/о +14.8 +14.2 96 +14 +14 тепло 1013.6 1010.5
10 10.07 ЮЗ 2 50 км в посл. час дождь н/о +15.1 +14.0 93 +15 +15 тепло 1013.8 1010.6
11 10.07 штиль 0 45 км н/о +15.9 +14.4 91 +16 +16 тепло 1013.7 1010.6
12 10.07 Ю 3 55 км н/о +17.1 +14.5 85 +17 +17 тепло 1013.4 1010.3 0.0
13 10.07 ЮВ 4 45 км н/о +17.5 +15.1 86 +17 +17 тепло 1013.4 1010.3
14 10.07 ЮВ 5 55 км н/о +18.1 +14.7 81 +18 +18 тепло 1013.0 1010.0
15 10.07 ЮВ 4 65 км н/о +18.2 +14.8 81 +18 +18 тепло 1012.6 1009.5
16 10.07 ЮВ 6 45 км н/о +17.7 +14.6 82 +17 +17 тепло 1012.4 1009.4
17 10.07 Ю 6 11 км н/о +15.7 +14.2 91 +14 +14 тепло 1012.3 1009.2
18 10.07 ЮВ 5 500 м туман н/о +14.5 +13.4 93 +13 +13 по сезону 1012.2 1009.1 +18.5 0.0
19 10.07 ЮВ 3 100 м слаб. морось н/о +13.4 +12.8 96 +12 +12 тепло 1012.1 1009.0
20 10.07 ЮВ 4 300 м туман н/о +13.0 +12.5 97 +11 +11 тепло 1011.8 1008.7
21 10.07 ЮВ 5 900 м слаб. морось с дождем н/о +12.6 +12.2 97 +10 +10 по сезону 1011.4 1008.3
22 10.07 ЮВ 4 300 м туман н/о +12.2 +11.8 97 +10 +10 тепло 1011.3 1008.2
23 10.07 ЮВ 3 300 м туман н/о +12.4 +12.0 97 +11 +11 тепло 1011.4 1008.2
00 11.07 В 3 300 м туман н/о +12.3 +11.9 97 +11 +11 тепло 1010.9 1007.8 0.0
01 11.07 ЮВ 5 400 м туман н/о +12.6 +12.2 97 +10 +10 тепло 1010.4 1007.3
02 11.07 ЮВ 4 400 м туман н/о +12.6 +12.2 97 +11 +11 тепло 1010.1 1006.9
03 11.07 ЮВ 5 300 м туман н/о +12.4 +12.1 98 +10 +10 по сезону 1009.5 1006.4
04 11.07 ЮВ 5 200 м туман н/о +12.5 +12.1 97 +10 +10 тепло 1009.3 1006.1
05 11.07 ЮВ 5 500 м туман н/о +12.4 +12.1 98 +10 +10 тепло 1009.1 1005.9
06 11.07 ЮВ 4 300 м туман н/о +12.5 +12.1 97 +10 +10 по сезону 1009.0 1005.9 +12.2 0.0
07 11.07 ЮВ 4 600 м туман н/о +12.7 +12.4 98 +11 +11 тепло 1009.0 1005.8
08 11.07 В 5 500 м туман н/о +13.2 +12.8 97 +11 +11 тепло 1008.9 1005.7
09 11.07 В 5 1800 м в посл. час туман н/о +13.1 +12.8 98 +11 +11 по сезону 1009.1 1006.0
10 11.07 В 5 1000 м в посл. час туман н/о +13.0 +12.7 98 +11 +11 тепло 1009.1 1006.0
11 11.07 В 6 1600 м в посл. час дождь н/о +13.3 +13.0 98 +11 +11 по сезону 1009.0 1005.8
12 11.07 В 6 6000 м слаб. морось н/о +13.6 +13.3 98 +11 +11 по сезону 1008.9 1005.8 0.2
13 11.07 В 6 9000 м в посл. час морось н/о +13.8 +13.4 97 +12 +12 тепло 1008.9 1005.8
14 11.07 В 7 2400 м дымка н/о +13.6 +13.2 97 +11 +11 по сезону 1008.8 1005.6
15 11.07 В 6 3700 м дымка н/о +13.0 +12.6 97 +10 +10 по сезону 1009.1 1006.0
16 11.07 В 6 1400 м дымка н/о +12.8 +12.3 97 +10 +10 тепло 1009.4 1006.3
17 11.07 В 6 2000 м слаб. морось н/о +12.7 +12.2 97 +10 +10 по сезону 1009.5 1006.4
18 11.07 В 6 1900 м слаб. морось н/о +12.4 +12.0 97 +10 +10 по сезону 1009.5 1006.4 +14.2 2
19 11.07 В 6 3000 м слаб. дождь н/о +12.1 +11.7 97 +9 +9 тепло 1009.7 1006.6
20 11.07 В 5 4700 м слаб. морось н/о +11.9 +11.5 97 +9 +9 по сезону 1010.0 1006.8
21 11.07 В 5 2900 м дождь н/о +11.8 +11.4 97 +9 +9 по сезону 1010.4 1007.3
22 11.07 В 6 5000 м слаб. морось н/о +11.7 +11.3 97 +9 +9 тепло 1010.6 1007.5
23 11.07 В 5 8000 м слаб. морось н/о +11.5 +11.1 97 +9 +9 тепло 1010.9 1007.7
00 12.07 В 5 8000 м слаб. морось с дождем н/о +11.3 +10.9 97 +9 +9 по сезону 1011.1 1007.9 7
01 12.07 СВ 5 12 км слаб. морось н/о +11.0 +10.4 96 +8 +8 тепло 1011.4 1008.3
02 12.07 СВ 5 20 км в посл. час морось н/о +10.9 +10.3 96 +8 +8 по сезону 1011.7 1008.5
03 12.07 СВ 4 19 км н/о +10.5 +9.8 95 +8 +8 по сезону 1011.9 1008.7
04 12.07 СВ 5 24 км н/о +10.9 +10.1 95 +8 +8 тепло 1012.3 1009.1
05 12.07 СВ 5 24 км н/о +11.2 +10.2 94 +8 +8 по сезону 1012.7 1009.6
06 12.07 СВ 4 27 км н/о +11.5 +10.3 92 +9 +9 по сезону 1013.3 1010.2 +10.5 8
07 12.07 СВ 5 27 км н/о +11.7 +10.2 91 +9 +9 тепло 1014.0 1010.9
08 12.07 СВ 5 30 км н/о +12.0 +10.1 88 +9 +9 по сезону 1014.3 1011.2
09 12.07 СВ 5 28 км н/о +12.1 +10.0 87 +10 +10 по сезону 1014.9 1011.7
10 12.07 СВ 5 30 км н/о +12.7 +10.1 84 +11 +11 тепло 1015.2 1012.1
11 12.07 СВ 4 40 км н/о +12.5 +9.3 81 +11 +11 по сезону 1015.9 1012.7
12 12.07 СВ 4 35 км н/о +12.7 +9.3 80 +11 +11 по сезону 1016.3 1013.2
13 12.07 С 4 30 км н/о +12.6 +9.2 80 +11 +11 тепло 1016.5 1013.4
14 12.07 С 5 30 км н/о +12.8 +9.9 83 +11 +11 по сезону 1017.4 1014.2
15 12.07 С 4 40 км н/о +13.0 +9.5 79 +11 +11 по сезону 1017.3 1014.2
16 12.07 С 4 35 км н/о +12.6 +8.9 78 +11 +11 тепло 1017.7 1014.6
17 12.07 С 4 30 км н/о +12.4 +9.2 81 +11 +11 по сезону 1018.1 1014.9
18 12.07 С 4 35 км н/о +12.4 +9.5 82 +10 +10 по сезону 1018.4 1015.3 +13.5
19 12.07 С 3 30 км н/о +11.7 +9.1 84 +10 +10 тепло 1018.7 1015.5
20 12.07 СЗ 3 30 км н/о +11.4 +9.0 85 +10 +10 тепло 1019.2 1016.0
21 12.07 С 3 35 км н/о +11.4 +8.9 85 +10 +10 по сезону 1019.6 1016.4
22 12.07 С 2 30 км н/о +11.2 +8.8 85 +10 +10 тепло 1019.9 1016.7
23 12.07 С 1 30 км н/о +11.2 +9.0 86 +11 +11 тепло 1020.1 1016.9
00 13.07 С 2 30 км н/о +11.3 +9.1 86 +10 +10 по сезону 1020.2 1017.0
01 13.07 штиль 0 26 км н/о +11.2 +9.1 87 +11 +11 тепло 1020.3 1017.1
02 13.07 штиль 0 19 км н/о +10.8 +9.3 90 +10 +10 тепло 1020.3 1017.1
03 13.07 штиль 0 19 км н/о +10.9 +9.5 91 +10 +10 по сезону 1020.3 1017.1
04 13.07 штиль 0 18 км н/о +11.2 +9.9 92 +10 +10 тепло 1020.3 1017.1
05 13.07 ЮЗ 1 12 км в посл. час дождь н/о +11.2 +10.2 94 +12 +12 тепло 1020.2 1017.0
06 13.07 З 4 5000 м дымка н/о +11.7 +10.9 95 +10 +10 по сезону 1020.3 1017.1 +10.8 0.0
07 13.07 З 5 1900 м дымка н/о +12.9 +12.3 96 +11 +11 тепло 1020.5 1017.3
08 13.07 З 6 65 км н/о +13.6 +12.4 92 +11 +11 тепло 1020.9 1017.7
09 13.07 З 6 65 км в посл. час дождь н/о +14.0 +12.7 92 +12 +12 по сезону 1021.0 1017.9
10 13.07 СЗ 6 30 км в посл. час дождь н/о +14.6 +12.7 88 +13 +13 тепло 1021.2 1018.0
11 13.07 З 6 40 км в посл. час дождь н/о +15.6 +12.8 83 +14 +14 тепло 1021.3 1018.1
12 13.07 З 7 >70 км н/о +15.6 +11.9 79 +14 +14 по сезону 1021.5 1018.4 0.2
13 13.07 З 7 50 км н/о +15.0 +11.5 80 +13 +13 тепло 1021.7 1018.6
14 13.07 З 6 8000 м дым н/о +14.0 +12.4 90 +12 +12 тепло 1022.0 1018.9
15 13.07 СЗ 6 50 км в посл. час дождь н/о +15.0 +12.1 83 +13 +13 по сезону 1022.2 1019.1
16 13.07 СЗ 6 35 км н/о +15.5 +12.3 81 +14 +14 тепло 1022.4 1019.3
17 13.07 СЗ 6 25 км н/о +14.1 +11.7 85 +12 +12 тепло 1022.7 1019.5
18 13.07 СЗ 6 30 км н/о +13.4 +11.2 87 +11 +11 по сезону 1023.1 1019.9 +16.3 0.2
19 13.07 СЗ 5 7000 м дым н/о +12.7 +11.3 91 +10 +10 тепло 1023.5 1020.4
20 13.07 СЗ 5 10 км дым н/о +12.2 +11.0 92 +10 +10 тепло 1023.7 1020.6
21 13.07 СЗ 3 30 км н/о +11.8 +11.0 95 +10 +10 по сезону 1024.1 1020.9
22 13.07 СЗ 4 10 км дымка н/о +11.7 +10.9 95 +9 +9 тепло 1024.2 1021.0
23 13.07 СЗ 5 25 км дымка н/о +11.5 +10.8 95 +9 +9 тепло 1024.4 1021.2
00 14.07 СЗ 3 6000 м н/о +11.3 +10.6 95 +9 +9 по сезону 1024.6 1021.4 0.4
01 14.07 СЗ 4 >70 км дымка н/о +11.1 +10.4 95 +9 +9 тепло 1025.0 1021.8
02 14.07 СЗ 3 35 км н/о +11.4 +10.5 94 +9 +9 тепло 1024.8 1021.6
03 14.07 СЗ 3 60 км н/о +11.6 +10.8 95 +10 +10 по сезону 1024.4 1021.3
04 14.07 СЗ 3 45 км н/о +11.6 +10.8 95 +10 +10 тепло 1024.4 1021.2
05 14.07 СЗ 3 4400 м морось с дождем н/о +11.9 +11.2 95 +10 +10 тепло 1024.5 1021.3
06 14.07 З 3 5000 м в посл. час дождь н/о +12.4 +11.7 95 +11 +11 по сезону 1024.6 1021.4 +11.1 0.6
07 14.07 СЗ 4 7000 м слаб. морось н/о +12.7 +11.9 95 +11 +11 тепло 1024.8 1021.7
08 14.07 СЗ 6 30 км в посл. час дождь н/о +12.4 +11.6 95 +10 +10 по сезону 1025.2 1022.1
09 14.07 С 5 40 км н/о +12.5 +11.6 94 +10 +10 по сезону 1025.4 1022.2
10 14.07 С 4 60 км н/о +13.8 +11.3 85 +12 +12 тепло 1025.5 1022.3
11 14.07 С 4 60 км н/о +13.6 +10.1 79 +12 +12 по сезону 1025.4 1022.3
12 14.07 СЗ 5 30 км н/о +13.4 +10.4 82 +12 +12 по сезону 1025.4 1022.3 0.2
13 14.07 С 4 24 км в посл. час дождь н/о +12.8 +11.2 90 +11 +11 тепло 1025.5 1022.4
14 14.07 С 5 15 км слаб. ливневой дождь н/о +13.2 +10.4 83 +11 +11 по сезону 1025.7 1022.5
15 14.07 С 4 65 км в посл. час дождь н/о +13.8 +9.6 76 +12 +12 по сезону 1025.6 1022.4
16 14.07 С 3 70 км н/о +13.8 +10.1 78 +13 +13 тепло 1025.3 1022.2
17 14.07 З 5 >70 км н/о +14.1 +8.9 71 +13 +13 тепло 1025.1 1021.9
18 14.07 З 4 60 км н/о +13.3 +8.5 73 +12 +12 по сезону 1025.1 1021.9 +15.2 0.2
19 14.07 С 4 55 км н/о +12.7 +9.2 79 +11 +11 тепло 1024.9 1021.8
20 14.07 СЗ 4 60 км н/о +12.3 +8.8 79 +11 +11 тепло 1024.7 1021.5
21 14.07 С 4 65 км н/о +12.1 +8.7 80 +10 +10 по сезону 1024.6 1021.5
22 14.07 СЗ 1 70 км н/о +11.6 +8.4 81 +11 +11 тепло 1024.6 1021.4
23 14.07 штиль 0 60 км н/о +11.4 +8.7 83 +11 +11 тепло 1024.3 1021.1
00 15.07 Ю 2 50 км н/о +11.2 +9.3 88 +10 +10 по сезону 1024.2 1021.0
01 15.07 ЮЗ 4 55 км н/о +11.5 +9.3 86 +9 +9 тепло 1024.0 1020.8
02 15.07 ЮЗ 2 55 км н/о +11.2 +9.7 90 +10 +10 тепло 1023.7 1020.5
03 15.07 Ю 3 50 км н/о +11.3 +9.7 90 +9 +9 по сезону 1023.1 1019.9
04 15.07 ЮЗ 3 55 км н/о +11.4 +10.1 92 +10 +10 тепло 1022.9 1019.7
05 15.07 штиль 0 60 км н/о +11.6 +10.0 90 +11 +11 тепло 1022.8 1019.6
06 15.07 З 1 65 км н/о +12.6 +10.3 86 +13 +13 тепло 1022.4 1019.2 +11.2
07 15.07 З 2 >70 км н/о +13.2 +10.4 83 +13 +13 тепло 1022.3 1019.1
08 15.07 З 2 >70 км н/о +13.6 +10.6 82 +13 +13 тепло 1022.2 1019.1
09 15.07 З 2 >70 км н/о +14.3 +10.9 80 +14 +14 тепло 1021.9 1018.7
10 15.07 штиль 0 65 км н/о +15.1 +11.4 79 +15 +15 тепло 1021.8 1018.6
11 15.07 С 2 70 км н/о +15.2 +11.4 78 +15 +15 тепло 1021.7 1018.5
12 15.07 С 2 >70 км н/о +15.8 +11.6 76 +16 +16 тепло 1021.4 1018.2
13 15.07 С 2 70 км н/о +17.1 +12.6 75 +18 +18 тепло 1021.2 1018.0
14 15.07 С 3 >70 км н/о +17.8 +12.7 72 +18 +18 тепло 1020.8 1017.7
15 15.07 СВ 4 65 км н/о +17.8 +13.4 75 +18 +18 тепло 1020.6 1017.5
16 15.07 В 3 60 км н/о +16.9 +12.7 76 +17 +17 тепло 1020.4 1017.3
17 15.07 В 2 40 км н/о +16.4 +12.1 76 +17 +17 тепло 1020.0 1016.8
18 15.07 Ю 4 35 км н/о +14.5 +11.5 82 +13 +13 по сезону 1019.9 1016.7 +18.8
19 15.07 ЮВ 3 50 км н/о +14.5 +11.7 83 +14 +14 тепло 1019.7 1016.6
20 15.07 Ю 4 60 км н/о +12.9 +10.5 85 +11 +11 тепло 1019.7 1016.6
21 15.07 Ю 5 55 км н/о +11.5 +10.2 92 +9 +9 по сезону 1019.4 1016.3
22 15.07 Ю 5 30 км н/о +11.1 +10.2 94 +8 +8 тепло 1019.4 1016.2
23 15.07 Ю 3 25 км н/о +11.0 +10.2 95 +9 +9 тепло 1019.1 1015.9
00 16.07 ЮЗ 4 40 км н/о +11.3 +10.6 95 +9 +9 по сезону 1018.7 1015.5
01 16.07 Ю 3 35 км н/о +10.9 +10.0 94 +9 +9 тепло 1018.3 1015.1
02 16.07 ЮЗ 2 30 км н/о +9.0 +8.0 93 +8 +8 по сезону 1018.0 1014.8
03 16.07 Ю 4 21 км н/о +10.6 +9.9 95 +8 +8 по сезону 1017.5 1014.3
04 16.07 Ю 4 18 км н/о +10.7 +10.1 96 +8 +8 тепло 1017.2 1014.0
05 16.07 ЮВ 2 13 км н/о +10.7 +10.1 96 +10 +10 тепло 1017.1 1013.9
06 16.07 ЮВ 2 14 км н/о +12.4 +11.8 96 +12 +12 тепло 1017.0 1013.8 +8.9
07 16.07 Ю 4 8000 м дымка н/о +13.1 +12.3 95 +11 +11 тепло 1016.6 1013.4
08 16.07 ЮВ 3 7000 м в посл. час туман н/о +13.4 +12.6 95 +12 +12 тепло 1016.2 1013.1
09 16.07 Ю 5 3200 м в посл. час туман н/о +13.1 +12.0 93 +11 +11 по сезону 1016.2 1013.1
10 16.07 Ю 5 14 км в посл. час туман н/о +14.4 +12.9 91 +13 +13 тепло 1015.6 1012.5
11 16.07 ЮВ 3 6000 м дым н/о +15.2 +12.9 86 +14 +14 тепло 1015.4 1012.3
12 16.07 ЮВ 3 15 км н/о +16.2 +13.6 85 +16 +16 тепло 1015.3 1012.2
13 16.07 ЮВ 4 23 км н/о +15.6 +13.1 85 +15 +15 тепло 1015.3 1012.2
14 16.07 СВ 2 20 км н/о +16.1 +13.2 83 +16 +16 тепло 1015.4 1012.3
15 16.07 С 3 28 км н/о +16.4 +12.9 80 +16 +16 тепло 1015.3 1012.2
16 16.07 С 3 28 км н/о +16.7 +13.0 79 +17 +17 тепло 1014.9 1011.8
17 16.07 С 3 30 км н/о +15.8 +12.6 81 +15 +15 тепло 1014.9 1011.8
18 16.07 СВ 2 45 км н/о +15.4 +12.2 81 +15 +15 тепло 1014.5 1011.4 +17.0
19 16.07 В 3 30 км н/о +14.9 +12.5 86 +14 +14 тепло 1014.5 1011.3
20 16.07 ЮВ 3 21 км н/о +13.4 +12.0 91 +12 +12 тепло 1014.4 1011.2
21 16.07 Ю 4 11 км в посл. час дождь н/о +12.5 +11.6 94 +10 +10 по сезону 1014.3 1011.2
22 16.07 Ю 5 3700 м слаб. ливневой дождь н/о +12.3 +11.7 96 +10 +10 тепло 1014.3 1011.1
23 16.07 Ю 2 25 км в посл. час дождь н/о +12.3 +11.7 96 +11 +11 тепло 1013.7 1010.6
00 17.07 ЮВ 4 12 км н/о +11.7 +11.1 96 +10 +10 по сезону 1013.3 1010.1 1
01 17.07 Ю 5 10 км н/о +11.3 +10.6 95 +8 +8 тепло 1012.9 1009.7

 

Местоположение метеостанции Керкуолл (Великобритания): широта 58.95 долгота -2.90 высота над уровнем моря 26 м.

В архиве по умолчанию представлена погода в Керкуолле за последнюю неделю. Архивные данные за месяц целиком и за предыдущие месяцы, начиная с января 2011 года, Вы можете получить, выбрав интересующий диапазон дат из раскрывающегося списка и нажав кнопку "Ввод!".


*Определитесь, кто Вы:
робот инопланетянин человек

Внимание! Время в таблицах - всемирное. Для получения местного времени необходимо прибавить поправку, которая равна 0 ч.

Смотрите также архив погоды в соседних городах и на ближайших метеорологических станциях:

Погода в Уике (Великобритания) (57 км)
Погода на Сул-Скерри (Великобритания) (87 км)
Погода на Фэр-Айл (Великобритания) (97 км)
Погода на Алтнахарре (Великобритания) (116 км)
Погода на Фуле (Великобритания) (138 км)
Погода в Лоссимуте (Великобритания) (139 км)
Погода в Тейн-Рендже (Великобритания) (140 км)
Погода в Кинлоссе (Великобритания) (150 км)
Погода в Леруике (Великобритания) (163 км)
Погода на Озере Гласкарнок (Великобритания) (179 км)

Пояснения к столбцам:

Ветер - указаны скорость ветра в м/с - средняя за 10 мин, порывы в срок и между сроками (в фигурных скобках) и направление, откуда дует ветер: С - северный, СВ - северо-восточный, В - восточный, ЮВ - юго-восточный, Ю - южный, ЮЗ - юго-западный, З - западный, СЗ - северо-западный.
Видимость - горизонтальная дальность видимости в метрах или километрах. При видимости от 1 до 10 км при отсутствии осадков обычно наблюдается дымка, при ухудшении видимости до 1 км и менее - туман. В сухую погоду видимость может ухудшаться дымом, пылью или мглою.
Явления - указаны атмосферные явления, наблюдавшиеся в срок или в последний час перед сроком; фигурными скобками обозначены явления, наблюдавшиеся между сроками (за 1-3 часа до срока); квадратными скобками обозначены град или гололедные отложения с указанием их диаметра в мм.
Облачность - указаны через наклонную черту общая и нижняя облачность в баллах и высота нижней границы облаков в метрах; квадратными скобками обозначены формы облаков: Ci - перистые, Cs - перисто-слоистые, Cc - перисто-кучевые, Ac - высококучевые, As - высокослоистые, Sc - слоисто-кучевые, Ns - слоисто-дождевые, Cu - кучевые, Cb - кучево-дождевые. Подробнее классификацию облаков см. в Атласе облаков (PDF).
T - Температура воздуха - температура, измеренная на высоте 2 м над землей.
Td - Температура точки росы - температура, при понижении до которой содержащийся в воздухе водяной пар достигнет насыщения.
f - Относительная влажность воздуха - влажноcть воздуха, измеренная на высоте 2 м над землей.
Te - Эффективная температура - температура, которую ощущает одетый по сезону человек в тени. Характеристика душности погоды. При расчете учитывается влияние влажности воздуха и скорости ветра на теплоощущения человека.
Tes - Эффективная температура на солнце - температура, которую ощущает человек, с поправкой на солнечный нагрев. Характеристика знойности погоды. Зависит от высоты солнца над горизонтом, облачности и скорости ветра. Ночью, в пасмурную погоду, а также при ветре 12 м/с и более поправка равна нулю.
P - Атмосферное давление - приведенное к уровню моря атмосферное давление.
Po - Атмосферное давление - измеренное на уровне метеостанции атмосферное давление.
Tmin - Минимальная температура - минимум температуры воздуха на высоте 2 м над землей.
Tmax - Максимальная температура - максимум температуры воздуха на высоте 2 м над землей.
R - Количество осадков - Количество выпавших осадков за период времени, мм. При наведении курсора мыши на число - период времени, за который выпало указанное количество осадков.
R24 - Количество осадков - Количество выпавших осадков за 24 часа, мм.
S - Снежный покров - Высота снежного покрова, см. При наведении курсора мыши на число - состояние снежного покрова и степень покрытия местности в баллах.